Flag for Belarus Weather past 2 weeks in Gomel, Belarus

Now
64 °F

Sunny.


Feels Like: 64 °F
Forecast: 58 / 71 °F
Wind: 8 mph from Southwest

Location: Gomel'

Current Time: Jul 29, 2015 at 9:53:13 PM

Latest Report: Jul 29, 2015 at 9:00 PM


Visibility: 10 mi

Pressure: 29.83 "Hg

Humidity: 64%

Dew point: 52 °F

Location of GomelLocation

Historic Weather in Gomel — Graph

°F

Gomel temperature yesterday

Maximum temperature yesterday: 70 °F (at 11:00 AM)
Minimum temperature yesterday: 63 °F (at 3:00 AM)
Average temperature yesterday: 67 °F

Past Weeks' High & Low Weather Summary

 TemperatureHumidityPressure
High93 °F (Jul 26, 3:00 PM)100% (Jul 14, 11:00 PM)30.07 "Hg (Jul 14, 11:00 PM)
Low52 °F (Jul 18, 5:00 AM)28% (Jul 17, 5:00 PM)29.62 "Hg (Jul 20, 7:30 AM)
Average68 °F67%29.88 "Hg
* Reported Jul 14 8:00 PM — Jul 29 8:30 PM, Gomel, Weather by CustomWeather, © 2015

Note: Actual official high and low records may vary slightly from our data, if they occured in-between our weather recording intervals... More about our weather records

Advertising

Gomel weather history for previous 24 hours

 ConditionsComfort  
Time TempWeatherWind HumidityBarometerVisibility
8:30 PM
Wed, Jul 29
66 °FSunny.13 mph64%29.83 "Hg10 mi
8:00 PM66 °FSunny.10 mph64%29.83 "Hg10 mi
7:30 PM68 °FSunny.10 mph60%29.83 "Hg10 mi
7:00 PM68 °FSunny.13 mph60%29.83 "Hg10 mi
6:30 PM70 °FPartly sunny.10 mph57%29.83 "HgN/A
6:00 PM70 °FPartly sunny.10 mph57%29.80 "HgN/A
5:30 PM72 °FPartly sunny.10 mph57%29.80 "HgN/A
5:00 PM72 °FPartly sunny.10 mph57%29.80 "HgN/A
4:30 PM72 °FBroken clouds.13 mph57%29.80 "HgN/A
4:00 PM72 °FBroken clouds.13 mph57%29.80 "HgN/A
3:30 PM70 °FPartly sunny.10 mph57%29.80 "HgN/A
3:00 PM70 °FOvercast.13 mph57%29.80 "HgN/A
2:30 PM73 °FMore clouds than sun.13 mph50%29.80 "HgN/A
2:00 PM73 °FBroken clouds.13 mph50%29.80 "HgN/A
1:30 PM73 °FBroken clouds.15 mph50%29.80 "HgN/A
1:00 PM73 °FBroken clouds.15 mph50%29.80 "HgN/A
12:30 PM73 °FBroken clouds.15 mph50%29.80 "HgN/A
12:00 PM73 °FPartly sunny.13 mph50%29.80 "HgN/A
11:30 AM72 °FPartly sunny.10 mph57%29.80 "HgN/A
10:30 AM70 °FSunny.10 mph60%29.80 "Hg10 mi
10:00 AM70 °FSunny.10 mph60%29.80 "Hg10 mi
9:30 AM66 °FSunny.10 mph73%29.80 "Hg10 mi
9:00 AM66 °FScattered clouds.10 mph73%29.80 "HgN/A
8:30 AM63 °FScattered clouds.8 mph83%29.80 "HgN/A
8:00 AM63 °FScattered clouds.8 mph83%29.80 "HgN/A
7:30 AM61 °FSunny.10 mph88%29.80 "Hg10 mi
7:00 AM61 °FSunny.8 mph88%29.77 "Hg10 mi
6:30 AM57 °FClear.6 mph94%29.77 "Hg5 mi
6:00 AM57 °FClear.6 mph94%29.77 "Hg4 mi
5:30 AM57 °FClear.6 mph94%29.77 "Hg4 mi
5:00 AM57 °FClear.8 mph94%29.77 "Hg5 mi
4:00 AM57 °FClear.8 mph94%29.74 "Hg10 mi
3:00 AM59 °FClear.10 mph94%29.74 "Hg10 mi
2:00 AM59 °FClear.8 mph94%29.74 "Hg10 mi
1:00 AM61 °FClear.8 mph88%29.74 "Hg10 mi
12:00 AM61 °FClear.8 mph88%29.74 "Hg10 mi
11:00 PM
Tue, Jul 28
63 °FClear.8 mph88%29.71 "Hg10 mi
10:00 PM64 °FClear.3 mph83%29.71 "Hg10 mi
9:00 PM66 °FSunny.3 mph78%29.71 "Hg10 mi
Weather by CustomWeather, © 2015

See weather overviewHow to use our weather pages